| time (UTC) | temp F | wind direction | speed MPH | gust MPH | rain 1hr in | rain 24hr in | rain mn in | humidity % | barometer mb |
| 20260505152952 | 79 | 180 | 5.0 | 10.0 | 0.00 | 0.00 | 0.00 | 45 | 958.5 |
| 20260505152452 | 78 | 238 | 5.0 | 12.0 | 0.00 | 0.00 | 0.00 | 46 | 958.5 |
| 20260505151952 | 78 | 202 | 6.0 | 14.0 | 0.00 | 0.00 | 0.00 | 46 | 958.6 |
| 20260505151447 | 77 | 208 | 6.0 | 14.0 | 0.00 | 0.00 | 0.00 | 45 | 958.7 |
| 20260505150946 | 77 | 185 | 6.0 | 14.0 | 0.00 | 0.00 | 0.00 | 46 | 958.7 |
| 20260505150443 | 77 | 127 | 7.0 | 14.0 | 0.00 | 0.00 | 0.00 | 44 | 958.7 |
| 20260505150157 | 77 | 217 | 6.0 | 16.0 | 0.00 | 0.00 | 0.00 | 45 | 958.8 |
| 20260505140433 | 74 | 125 | 0.0 | 3.0 | 0.00 | 0.00 | 0.00 | 54 | 959.1 |
| 20260505124307 | 65 | 218 | 2.0 | 4.0 | 0.00 | 0.00 | 0.00 | 67 | 959.5 |
| 20260505123800 | 64 | 174 | 2.0 | 4.0 | 0.00 | 0.00 | 0.00 | 68 | 959.5 |
| 20260505123254 | 64 | 223 | 1.0 | 4.0 | 0.00 | 0.00 | 0.00 | 69 | 959.6 |
| 20260505122749 | 64 | 174 | 1.0 | 3.0 | 0.00 | 0.00 | 0.00 | 69 | 959.6 |
| 20260505122242 | 63 | 206 | 1.0 | 4.0 | 0.00 | 0.00 | 0.00 | 71 | 959.5 |
| 20260505121736 | 62 | 243 | 1.0 | 4.0 | 0.00 | 0.00 | 0.00 | 72 | 959.6 |
| 20260505121237 | 62 | 231 | 1.0 | 3.0 | 0.00 | 0.00 | 0.00 | 73 | 959.6 |
| 20260505120724 | 61 | 168 | 0.0 | 2.0 | 0.00 | 0.00 | 0.00 | 75 | 959.6 |
| 20260505120218 | 60 | 221 | 0.0 | 1.0 | 0.00 | 0.00 | 0.00 | 78 | 959.4 |
| 20260505115711 | 59 | 219 | 0.0 | 1.0 | 0.00 | 0.00 | 0.00 | 80 | 959.4 |
| 20260505115435 | 58 | 219 | 0.0 | 1.0 | 0.00 | 0.00 | 0.00 | 80 | 959.4 |
| 20260505114701 | 57 | 214 | 0.0 | 0.0 | 0.00 | 0.00 | 0.00 | 77 | 959.4 |
| 20260505114154 | 57 | 214 | 0.0 | 0.0 | 0.00 | 0.00 | 0.00 | 74 | 959.4 |
| 20260505113649 | 56 | 214 | 0.0 | 0.0 | 0.00 | 0.00 | 0.00 | 73 | 959.3 |
| 20260505113142 | 56 | 214 | 0.0 | 0.0 | 0.00 | 0.00 | 0.00 | 72 | 959.3 |
| 20260505112637 | 55 | 214 | 0.0 | 0.0 | 0.00 | 0.00 | 0.00 | 73 | 959.3 |
| 20260505112131 | 55 | 214 | 0.0 | 0.0 | 0.00 | 0.00 | 0.00 | 73 | 959.3 |
| 20260505111624 | 55 | 214 | 0.0 | 0.0 | 0.00 | 0.00 | 0.00 | 73 | 959.2 |
| 20260505111118 | 55 | 214 | 0.0 | 0.0 | 0.00 | 0.00 | 0.00 | 72 | 959.1 |
| 20260505110612 | 54 | 214 | 0.0 | 0.0 | 0.00 | 0.00 | 0.00 | 72 | 959.0 |
| 20260505110106 | 53 | 216 | 0.0 | 0.0 | 0.00 | 0.00 | 0.00 | 73 | 959.1 |
| 20260505102020 | 49 | 216 | 0.0 | 0.0 | 0.00 | 0.00 | 0.00 | 75 | 959.0 |
| 20260505101512 | 49 | 216 | 0.0 | 0.0 | 0.00 | 0.00 | 0.00 | 76 | 958.9 |
| 20260505101007 | 49 | 216 | 0.0 | 0.0 | 0.00 | 0.00 | 0.00 | 76 | 958.9 |
| 20260505100502 | 49 | 216 | 0.0 | 0.0 | 0.00 | 0.00 | 0.00 | 76 | 958.8 |
| 20260505095954 | 49 | 216 | 0.0 | 0.0 | 0.00 | 0.00 | 0.00 | 76 | 958.6 |
| 20260505095708 | 49 | 216 | 0.0 | 0.0 | 0.00 | 0.00 | 0.00 | 76 | 958.5 |
| 20260505094942 | 49 | 216 | 0.0 | 0.0 | 0.00 | 0.00 | 0.00 | 76 | 958.4 |
| 20260505094436 | 49 | 216 | 0.0 | 0.0 | 0.00 | 0.00 | 0.00 | 77 | 958.4 |
| 20260505093930 | 50 | 216 | 0.0 | 0.0 | 0.00 | 0.00 | 0.00 | 76 | 958.4 |
| 20260505093423 | 50 | 216 | 0.0 | 0.0 | 0.00 | 0.00 | 0.00 | 76 | 958.4 |
| 20260505093143 | 50 | 216 | 0.0 | 0.0 | 0.00 | 0.00 | 0.00 | 76 | 958.3 |
| 20260505092413 | 50 | 216 | 0.0 | 0.0 | 0.00 | 0.00 | 0.00 | 77 | 958.2 |
| 20260505091906 | 50 | 216 | 0.0 | 0.0 | 0.00 | 0.00 | 0.00 | 77 | 958.4 |
| 20260505091400 | 50 | 216 | 0.0 | 0.0 | 0.00 | 0.00 | 0.00 | 77 | 958.4 |
| 20260505090854 | 50 | 216 | 0.0 | 0.0 | 0.00 | 0.00 | 0.00 | 77 | 958.4 |
| 20260505090348 | 50 | 216 | 0.0 | 0.0 | 0.00 | 0.00 | 0.00 | 77 | 958.3 |
| 20260505085849 | 50 | 216 | 0.0 | 0.0 | 0.00 | 0.00 | 0.00 | 77 | 958.5 |
| 20260505085350 | 50 | 216 | 0.0 | 0.0 | 0.00 | 0.00 | 0.00 | 78 | 958.4 |
| 20260505084848 | 50 | 217 | 0.0 | 0.0 | 0.00 | 0.00 | 0.00 | 78 | 958.5 |
| 20260505084345 | 50 | 216 | 0.0 | 0.0 | 0.00 | 0.00 | 0.00 | 78 | 958.5 |
| 20260505084118 | 51 | 216 | 0.0 | 0.0 | 0.00 | 0.00 | 0.00 | 78 | 958.4 |
| 20260505083345 | 51 | 216 | 0.0 | 0.0 | 0.00 | 0.00 | 0.00 | 79 | 958.3 |
| 20260505082847 | 51 | 216 | 0.0 | 0.0 | 0.00 | 0.00 | 0.00 | 79 | 958.2 |
| 20260505082345 | 51 | 216 | 0.0 | 0.0 | 0.00 | 0.00 | 0.00 | 79 | 958.2 |
| 20260505081843 | 51 | 216 | 0.0 | 0.0 | 0.00 | 0.00 | 0.00 | 79 | 958.1 |
| 20260505081604 | 51 | 216 | 0.0 | 0.0 | 0.00 | 0.00 | 0.00 | 79 | 958.1 |
| 20260505080842 | 51 | 216 | 0.0 | 0.0 | 0.00 | 0.00 | 0.00 | 80 | 958.2 |
| 20260505080602 | 51 | 216 | 0.0 | 0.0 | 0.00 | 0.00 | 0.00 | 80 | 958.1 |
| 20260505075840 | 52 | 216 | 0.0 | 0.0 | 0.00 | 0.00 | 0.00 | 80 | 958.2 |
| 20260505075340 | 52 | 216 | 0.0 | 0.0 | 0.00 | 0.00 | 0.00 | 80 | 958.1 |
| 20260505074837 | 52 | 217 | 0.0 | 0.0 | 0.00 | 0.00 | 0.00 | 80 | 958.0 |
| 20260505074337 | 53 | 216 | 0.0 | 0.0 | 0.00 | 0.00 | 0.00 | 80 | 958.0 |
| 20260505074107 | 53 | 216 | 0.0 | 0.0 | 0.00 | 0.00 | 0.00 | 80 | 958.0 |
| 20260505073336 | 53 | 216 | 0.0 | 0.0 | 0.00 | 0.00 | 0.00 | 80 | 958.0 |
| 20260505072831 | 53 | 217 | 0.0 | 0.0 | 0.00 | 0.00 | 0.00 | 80 | 957.9 |
| 20260505072331 | 54 | 216 | 0.0 | 0.0 | 0.00 | 0.00 | 0.00 | 80 | 958.0 |
| 20260505071833 | 54 | 216 | 0.0 | 0.0 | 0.00 | 0.00 | 0.00 | 80 | 957.9 |
| 20260505071330 | 54 | 217 | 0.0 | 0.0 | 0.00 | 0.00 | 0.00 | 80 | 957.9 |
| 20260505070830 | 54 | 216 | 0.0 | 0.0 | 0.00 | 0.00 | 0.00 | 80 | 957.9 |
| 20260505070328 | 55 | 216 | 0.0 | 0.0 | 0.00 | 0.00 | 0.00 | 79 | 957.8 |
| 20260505070057 | 55 | 216 | 0.0 | 0.0 | 0.00 | 0.00 | 0.00 | 79 | 958.0 |
| 20260505065554 | 55 | 216 | 0.0 | 0.0 | 0.00 | 0.00 | 0.00 | 78 | 957.9 |
| 20260505064827 | 56 | 216 | 0.0 | 0.0 | 0.00 | 0.00 | 0.00 | 78 | 957.9 |
| 20260505064326 | 56 | 216 | 0.0 | 0.0 | 0.00 | 0.00 | 0.00 | 77 | 957.9 |
| 20260505063825 | 56 | 216 | 0.0 | 0.0 | 0.00 | 0.00 | 0.00 | 77 | 958.0 |
| 20260505063322 | 56 | 216 | 0.0 | 0.0 | 0.00 | 0.00 | 0.00 | 77 | 958.2 |
| 20260505062822 | 56 | 217 | 0.0 | 0.0 | 0.00 | 0.00 | 0.00 | 78 | 958.1 |
| 20260505062323 | 56 | 216 | 0.0 | 0.0 | 0.00 | 0.00 | 0.00 | 78 | 958.1 |
| 20260505061820 | 56 | 216 | 0.0 | 0.0 | 0.00 | 0.00 | 0.00 | 78 | 958.2 |
| 20260505061321 | 56 | 216 | 0.0 | 0.0 | 0.00 | 0.00 | 0.00 | 78 | 958.1 |
| 20260505060819 | 56 | 216 | 0.0 | 0.0 | 0.00 | 0.00 | 0.00 | 79 | 958.2 |
| 20260505060321 | 56 | 216 | 0.0 | 0.0 | 0.00 | 0.00 | 0.00 | 79 | 958.3 |
| 20260505055819 | 56 | 215 | 0.0 | 0.0 | 0.00 | 0.00 | 0.00 | 79 | 958.3 |
| 20260505055635 | 56 | 216 | 0.0 | 0.0 | 0.00 | 0.00 | 0.00 | 78 | 958.2 |
| 20260505055557 | 56 | 216 | 0.0 | 0.0 | 0.00 | 0.00 | 0.00 | 78 | 958.2 |
| 20260505054325 | 56 | 216 | 0.0 | 0.0 | 0.00 | 0.00 | 0.00 | 77 | 958.2 |
| 20260505053823 | 56 | 216 | 0.0 | 0.0 | 0.00 | 0.00 | 0.00 | 77 | 958.1 |
| 20260505053322 | 56 | 216 | 0.0 | 0.0 | 0.00 | 0.00 | 0.00 | 77 | 958.1 |
| 20260505052823 | 56 | 216 | 0.0 | 0.0 | 0.00 | 0.00 | 0.00 | 77 | 958.1 |
| 20260505052319 | 56 | 216 | 0.0 | 0.0 | 0.00 | 0.00 | 0.00 | 77 | 958.0 |
| 20260505051818 | 56 | 215 | 0.0 | 0.0 | 0.00 | 0.00 | 0.00 | 77 | 958.1 |
| 20260505051319 | 56 | 216 | 0.0 | 0.0 | 0.00 | 0.00 | 0.00 | 77 | 958.0 |
| 20260505050815 | 56 | 216 | 0.0 | 0.0 | 0.00 | 0.00 | 0.00 | 77 | 958.1 |
| 20260505050316 | 56 | 216 | 0.0 | 0.0 | 0.00 | 0.00 | 0.00 | 77 | 958.1 |
| 20260505041316 | 56 | 216 | 0.0 | 0.0 | 0.00 | 0.00 | 0.00 | 76 | 957.9 |
| 20260505040815 | 56 | 215 | 0.0 | 0.0 | 0.00 | 0.00 | 0.00 | 74 | 957.9 |
| 20260505040316 | 56 | 216 | 0.0 | 0.0 | 0.00 | 0.00 | 0.00 | 74 | 957.8 |
| 20260505035815 | 56 | 216 | 0.0 | 0.0 | 0.00 | 0.00 | 0.00 | 74 | 957.7 |
| 20260505035311 | 56 | 216 | 0.0 | 0.0 | 0.00 | 0.00 | 0.00 | 73 | 957.6 |
| 20260505034802 | 56 | 215 | 0.0 | 0.0 | 0.00 | 0.00 | 0.00 | 73 | 957.6 |
| 20260505034257 | 56 | 216 | 0.0 | 0.0 | 0.00 | 0.00 | 0.00 | 73 | 957.5 |
| 20260505033751 | 56 | 216 | 0.0 | 0.0 | 0.00 | 0.00 | 0.00 | 72 | 957.7 |
| 20260505033245 | 56 | 216 | 0.0 | 0.0 | 0.00 | 0.00 | 0.00 | 71 | 957.7 |
| 20260505032739 | 57 | 216 | 0.0 | 0.0 | 0.00 | 0.00 | 0.00 | 71 | 957.6 |
| 20260505032233 | 57 | 216 | 0.0 | 0.0 | 0.00 | 0.00 | 0.00 | 70 | 957.6 |
| 20260505031949 | 58 | 216 | 0.0 | 0.0 | 0.00 | 0.00 | 0.00 | 70 | 957.7 |
| 20260505031442 | 58 | 216 | 0.0 | 0.0 | 0.00 | 0.00 | 0.00 | 69 | 957.6 |
| 20260505031214 | 58 | 216 | 0.0 | 1.0 | 0.00 | 0.00 | 0.00 | 67 | 957.7 |
| 20260505030209 | 59 | 216 | 0.0 | 3.0 | 0.00 | 0.00 | 0.00 | 67 | 957.7 |
| 20260505025705 | 59 | 216 | 0.0 | 3.0 | 0.00 | 0.00 | 0.00 | 66 | 957.7 |
| 20260505025158 | 59 | 167 | 0.0 | 0.0 | 0.00 | 0.00 | 0.00 | 65 | 957.6 |
| 20260505024652 | 60 | 167 | 0.0 | 0.0 | 0.00 | 0.00 | 0.00 | 63 | 957.6 |
| 20260505024146 | 60 | 168 | 0.0 | 0.0 | 0.00 | 0.00 | 0.00 | 62 | 957.6 |
| 20260505023908 | 61 | 168 | 0.0 | 0.0 | 0.00 | 0.00 | 0.00 | 61 | 957.6 |
| 20260505023134 | 61 | 167 | 0.0 | 0.0 | 0.00 | 0.00 | 0.00 | 61 | 957.5 |
| 20260505022628 | 61 | 168 | 0.0 | 0.0 | 0.00 | 0.00 | 0.00 | 61 | 957.6 |
| 20260505022121 | 62 | 168 | 0.0 | 0.0 | 0.00 | 0.00 | 0.00 | 60 | 957.4 |
| 20260505021616 | 63 | 168 | 0.0 | 0.0 | 0.00 | 0.00 | 0.00 | 58 | 957.3 |
| 20260505021110 | 63 | 168 | 0.0 | 0.0 | 0.00 | 0.00 | 0.00 | 57 | 957.2 |
| 20260505020603 | 64 | 168 | 0.0 | 0.0 | 0.00 | 0.00 | 0.00 | 57 | 957.4 |
| 20260505020058 | 64 | 168 | 0.0 | 0.0 | 0.00 | 0.00 | 0.00 | 55 | 957.4 |
| 20260505015551 | 65 | 168 | 0.0 | 0.0 | 0.00 | 0.00 | 0.00 | 55 | 957.4 |
| 20260505015045 | 66 | 168 | 0.0 | 0.0 | 0.00 | 0.00 | 0.00 | 54 | 957.4 |
| 20260505014540 | 66 | 168 | 0.0 | 3.0 | 0.00 | 0.00 | 0.00 | 51 | 957.3 |
| 20260505014033 | 66 | 173 | 1.0 | 3.0 | 0.00 | 0.00 | 0.00 | 53 | 957.4 |
| 20260505013527 | 66 | 226 | 0.0 | 3.0 | 0.00 | 0.00 | 0.00 | 52 | 957.4 |
| 20260505013241 | 66 | 229 | 0.0 | 3.0 | 0.00 | 0.00 | 0.00 | 52 | 957.3 |
| 20260505012515 | 66 | 203 | 0.0 | 3.0 | 0.00 | 0.00 | 0.00 | 51 | 957.3 |
| 20260505012009 | 67 | 236 | 0.0 | 1.0 | 0.00 | 0.00 | 0.00 | 50 | 957.2 |
| 20260505011504 | 67 | 236 | 0.0 | 1.0 | 0.00 | 0.00 | 0.00 | 48 | 957.0 |
| 20260505010957 | 68 | 236 | 0.0 | 1.0 | 0.00 | 0.00 | 0.00 | 47 | 957.0 |
| 20260505010451 | 69 | 236 | 0.0 | 2.0 | 0.00 | 0.00 | 0.00 | 49 | 957.1 |
| 20260505005945 | 69 | 236 | 1.0 | 7.0 | 0.00 | 0.00 | 0.00 | 45 | 957.1 |
| 20260505005439 | 70 | 245 | 1.0 | 7.0 | 0.00 | 0.00 | 0.00 | 45 | 957.0 |
| 20260505004933 | 70 | 252 | 1.0 | 5.0 | 0.00 | 0.00 | 0.00 | 45 | 956.9 |
| 20260505004427 | 70 | 233 | 0.0 | 3.0 | 0.00 | 0.00 | 0.00 | 45 | 956.9 |
| 20260505003922 | 70 | 219 | 1.0 | 4.0 | 0.00 | 0.00 | 0.00 | 44 | 956.8 |
| 20260505003415 | 71 | 238 | 1.0 | 4.0 | 0.00 | 0.00 | 0.00 | 43 | 956.7 |
| 20260505003131 | 71 | 226 | 1.0 | 4.0 | 0.00 | 0.00 | 0.00 | 43 | 956.7 |
| 20260505002403 | 71 | 269 | 2.0 | 5.0 | 0.00 | 0.00 | 0.00 | 43 | 956.6 |
| 20260505001857 | 71 | 229 | 3.0 | 8.0 | 0.00 | 0.00 | 0.00 | 43 | 956.5 |
| 20260505001352 | 71 | 248 | 3.0 | 8.0 | 0.00 | 0.00 | 0.00 | 42 | 956.5 |
| 20260505000846 | 71 | 126 | 3.0 | 11.0 | 0.00 | 0.00 | 0.00 | 42 | 956.5 |
| 20260505000339 | 72 | 212 | 4.0 | 11.0 | 0.00 | 0.00 | 0.00 | 42 | 956.6 |
| 20260504235833 | 72 | 146 | 3.0 | 8.0 | 0.00 | 0.00 | 0.00 | 42 | 956.5 |
| 20260504235327 | 72 | 265 | 3.0 | 11.0 | 0.00 | 0.00 | 0.00 | 42 | 956.6 |
| 20260504234820 | 72 | 229 | 4.0 | 11.0 | 0.00 | 0.00 | 0.00 | 42 | 956.4 |
| 20260504234315 | 72 | 229 | 3.0 | 10.0 | 0.00 | 0.00 | 0.00 | 42 | 956.4 |
| 20260504233809 | 72 | 238 | 3.0 | 10.0 | 0.00 | 0.00 | 0.00 | 41 | 956.4 |
| 20260504233303 | 72 | 193 | 2.0 | 7.0 | 0.00 | 0.00 | 0.00 | 41 | 956.4 |
| 20260504232758 | 72 | 264 | 4.0 | 13.0 | 0.00 | 0.00 | 0.00 | 41 | 956.4 |
| 20260504232517 | 73 | 232 | 4.0 | 13.0 | 0.00 | 0.00 | 0.00 | 40 | 956.3 |
| 20260504231745 | 73 | 218 | 3.0 | 9.0 | 0.00 | 0.00 | 0.00 | 40 | 956.4 |
| 20260504231240 | 73 | 150 | 4.0 | 9.0 | 0.00 | 0.00 | 0.00 | 41 | 956.3 |
| 20260504230733 | 73 | 232 | 4.0 | 10.0 | 0.00 | 0.00 | 0.00 | 40 | 956.4 |
| 20260504230227 | 73 | 169 | 4.0 | 11.0 | 0.00 | 0.00 | 0.00 | 40 | 956.4 |
| 20260504225727 | 74 | 167 | 4.0 | 11.0 | 0.00 | 0.00 | 0.00 | 40 | 956.4 |
| 20260504225445 | 74 | 230 | 4.0 | 11.0 | 0.00 | 0.00 | 0.00 | 40 | 956.5 |
| 20260504224727 | 74 | 180 | 5.0 | 12.0 | 0.00 | 0.00 | 0.00 | 39 | 956.6 |
| 20260504224229 | 75 | 135 | 5.0 | 14.0 | 0.00 | 0.00 | 0.00 | 39 | 956.6 |
| 20260504223726 | 75 | 182 | 6.0 | 16.0 | 0.00 | 0.00 | 0.00 | 38 | 956.6 |
| 20260504223228 | 76 | 200 | 5.0 | 16.0 | 0.00 | 0.00 | 0.00 | 38 | 956.6 |
| 20260504222947 | 76 | 236 | 4.0 | 8.0 | 0.00 | 0.00 | 0.00 | 38 | 956.5 |
| 20260504222449 | 76 | 167 | 4.0 | 11.0 | 0.00 | 0.00 | 0.00 | 39 | 956.4 |
| 20260504221725 | 76 | 181 | 4.0 | 11.0 | 0.00 | 0.00 | 0.00 | 36 | 956.6 |
| 20260504221227 | 76 | 203 | 4.0 | 9.0 | 0.00 | 0.00 | 0.00 | 36 | 956.6 |
| 20260504220727 | 76 | 216 | 4.0 | 11.0 | 0.00 | 0.00 | 0.00 | 36 | 956.5 |
| 20260504220227 | 76 | 172 | 3.0 | 11.0 | 0.00 | 0.00 | 0.00 | 36 | 956.7 |
| 20260504215725 | 76 | 192 | 4.0 | 10.0 | 0.00 | 0.00 | 0.00 | 38 | 956.5 |
| 20260504215225 | 76 | 167 | 5.0 | 12.0 | 0.00 | 0.00 | 0.00 | 37 | 956.6 |
| 20260504214725 | 76 | 236 | 4.0 | 12.0 | 0.00 | 0.00 | 0.00 | 36 | 956.6 |
| 20260504214458 | 76 | 223 | 4.0 | 11.0 | 0.00 | 0.00 | 0.00 | 37 | 956.5 |
| 20260504213719 | 76 | 221 | 4.0 | 9.0 | 0.00 | 0.00 | 0.00 | 37 | 956.5 |
| 20260504213217 | 76 | 184 | 4.0 | 12.0 | 0.00 | 0.00 | 0.00 | 35 | 956.5 |
| 20260504212716 | 76 | 238 | 5.0 | 12.0 | 0.00 | 0.00 | 0.00 | 37 | 956.5 |
| 20260504212432 | 76 | 214 | 5.0 | 14.0 | 0.00 | 0.00 | 0.00 | 36 | 956.4 |
| 20260504211717 | 76 | 182 | 5.0 | 14.0 | 0.00 | 0.00 | 0.00 | 35 | 956.5 |
| 20260504211217 | 76 | 248 | 5.0 | 14.0 | 0.00 | 0.00 | 0.00 | 35 | 956.6 |
| 20260504210720 | 76 | 255 | 6.0 | 12.0 | 0.00 | 0.00 | 0.00 | 35 | 956.4 |
| 20260504210219 | 76 | 221 | 6.0 | 12.0 | 0.00 | 0.00 | 0.00 | 34 | 956.5 |
| 20260504205719 | 76 | 6 | 6.0 | 12.0 | 0.00 | 0.00 | 0.00 | 36 | 956.6 |
| 20260504205217 | 76 | 231 | 4.0 | 11.0 | 0.00 | 0.00 | 0.00 | 35 | 956.5 |
| 20260504204716 | 76 | 236 | 4.0 | 11.0 | 0.00 | 0.00 | 0.00 | 34 | 956.5 |
| 20260504204216 | 76 | 147 | 4.0 | 8.0 | 0.00 | 0.00 | 0.00 | 36 | 956.5 |
| 20260504203717 | 76 | 228 | 4.0 | 10.0 | 0.00 | 0.00 | 0.00 | 35 | 956.5 |
| 20260504203212 | 76 | 216 | 5.0 | 12.0 | 0.00 | 0.00 | 0.00 | 35 | 956.7 |
| 20260504203202 | 76 | 211 | 4.0 | 12.0 | 0.00 | 0.00 | 0.00 | 35 | 956.8 |
| 20260504202213 | 76 | 226 | 6.0 | 14.0 | 0.00 | 0.00 | 0.00 | 36 | 956.8 |
| 20260504201714 | 75 | 244 | 6.0 | 14.0 | 0.00 | 0.00 | 0.00 | 35 | 956.9 |
| 20260504201213 | 75 | 202 | 5.0 | 11.0 | 0.00 | 0.00 | 0.00 | 37 | 957.0 |
| 20260504201203 | 75 | 226 | 5.0 | 14.0 | 0.00 | 0.00 | 0.00 | 34 | 957.1 |
| 20260504200213 | 75 | 205 | 5.0 | 14.0 | 0.00 | 0.00 | 0.00 | 37 | 957.2 |
| 20260504195712 | 75 | 176 | 5.0 | 12.0 | 0.00 | 0.00 | 0.00 | 35 | 957.3 |
| 20260504195214 | 75 | 197 | 6.0 | 14.0 | 0.00 | 0.00 | 0.00 | 38 | 957.2 |
| 20260504194711 | 75 | 243 | 6.0 | 14.0 | 0.00 | 0.00 | 0.00 | 37 | 957.3 |
| 20260504194209 | 75 | 156 | 5.0 | 14.0 | 0.00 | 0.00 | 0.00 | 37 | 957.5 |
| 20260504193708 | 75 | 260 | 5.0 | 15.0 | 0.00 | 0.00 | 0.00 | 37 | 957.5 |
| 20260504193207 | 75 | 243 | 5.0 | 15.0 | 0.00 | 0.00 | 0.00 | 35 | 957.6 |
| 20260504192711 | 75 | 186 | 5.0 | 12.0 | 0.00 | 0.00 | 0.00 | 37 | 957.8 |
| 20260504192208 | 75 | 210 | 5.0 | 12.0 | 0.00 | 0.00 | 0.00 | 37 | 957.8 |
| 20260504191936 | 75 | 210 | 5.0 | 11.0 | 0.00 | 0.00 | 0.00 | 37 | 957.8 |
| 20260504191209 | 74 | 260 | 7.0 | 17.0 | 0.00 | 0.00 | 0.00 | 36 | 957.8 |
| 20260504190709 | 74 | 233 | 6.0 | 17.0 | 0.00 | 0.00 | 0.00 | 37 | 958.0 |
| 20260504190209 | 74 | 210 | 5.0 | 11.0 | 0.00 | 0.00 | 0.00 | 38 | 958.1 |
| 20260504185710 | 74 | 168 | 5.0 | 11.0 | 0.00 | 0.00 | 0.00 | 39 | 958.2 |
| 20260504185209 | 74 | 233 | 5.0 | 11.0 | 0.00 | 0.00 | 0.00 | 38 | 958.3 |
| 20260504184707 | 73 | 162 | 6.0 | 12.0 | 0.00 | 0.00 | 0.00 | 37 | 958.4 |
| 20260504184210 | 73 | 240 | 7.0 | 17.0 | 0.00 | 0.00 | 0.00 | 39 | 958.5 |
| 20260504183708 | 73 | 286 | 6.0 | 17.0 | 0.00 | 0.00 | 0.00 | 38 | 958.7 |
| 20260504183433 | 73 | 210 | 5.0 | 12.0 | 0.00 | 0.00 | 0.00 | 37 | 958.7 |
| 20260504182708 | 73 | 221 | 5.0 | 12.0 | 0.00 | 0.00 | 0.00 | 39 | 958.6 |
| 20260504182207 | 73 | 219 | 6.0 | 13.0 | 0.00 | 0.00 | 0.00 | 39 | 958.8 |
| 20260504181707 | 73 | 239 | 6.0 | 12.0 | 0.00 | 0.00 | 0.00 | 39 | 958.9 |
| 20260504181203 | 73 | 129 | 6.0 | 14.0 | 0.00 | 0.00 | 0.00 | 39 | 958.8 |
| 20260504180656 | 72 | 234 | 6.0 | 14.0 | 0.00 | 0.00 | 0.00 | 41 | 958.9 |
| 20260504180413 | 72 | 248 | 5.0 | 14.0 | 0.00 | 0.00 | 0.00 | 39 | 959.2 |
| 20260504175644 | 72 | 207 | 5.0 | 11.0 | 0.00 | 0.00 | 0.00 | 38 | 959.2 |
| 20260504175400 | 72 | 166 | 5.0 | 11.0 | 0.00 | 0.00 | 0.00 | 42 | 959.2 |
| 20260504174635 | 72 | 218 | 5.0 | 11.0 | 0.00 | 0.00 | 0.00 | 40 | 959.4 |
| 20260504174127 | 72 | 246 | 6.0 | 17.0 | 0.00 | 0.00 | 0.00 | 40 | 959.4 |
| 20260504173621 | 72 | 167 | 6.0 | 17.0 | 0.00 | 0.00 | 0.00 | 39 | 959.5 |
| 20260504173121 | 72 | 219 | 4.0 | 11.0 | 0.00 | 0.00 | 0.00 | 39 | 959.4 |
| 20260504172622 | 72 | 255 | 4.0 | 11.0 | 0.00 | 0.00 | 0.00 | 40 | 959.5 |
| 20260504172124 | 71 | 198 | 5.0 | 10.0 | 0.00 | 0.00 | 0.00 | 40 | 959.5 |
| 20260504171621 | 71 | 241 | 4.0 | 9.0 | 0.00 | 0.00 | 0.00 | 40 | 959.6 |
| 20260504171121 | 71 | 224 | 5.0 | 15.0 | 0.00 | 0.00 | 0.00 | 40 | 959.7 |
| 20260504170620 | 70 | 266 | 6.0 | 15.0 | 0.00 | 0.00 | 0.00 | 39 | 959.8 |
| 20260504170119 | 70 | 223 | 6.0 | 14.0 | 0.00 | 0.00 | 0.00 | 41 | 959.8 |